When you browse on this site, cookies collect data to enhance your experience and personalize the content and advertising you see.
Visit our Privacy Policy to learn more. By continuing to use the site, you agree to this use of cookies and data.
  • In Austria
  • List of Countries
  • For 7 days
  • Water Temperature
  • Satellite Maps
  • Weather Map
  • News
  • Weather Widgets
  • user-avatar
    Login

    Hourly Weather Brisbane

    Today, 19 May, Sunday

    Time Temperature Precipitation Wind Pressure Humidity
    00:00 +17°C° 0 mm 3 mps 768 mmHg 83%
    01:00 +17°C° 0 mm 3 mps 768 mmHg 84%
    02:00 +17°C° 0 mm 3 mps 768 mmHg 85%
    03:00 +17°C° 0 mm 3 mps 768 mmHg 86%
    04:00 +16°C° 0 mm 3 mps 768 mmHg 88%
    05:00 +16°C° 0 mm 3 mps 768 mmHg 88%
    06:00 +17°C° 0 mm 3 mps 768 mmHg 87%
    07:00 +17°C° 0 mm 3 mps 769 mmHg 86%
    08:00 +19°C° 0 mm 4 mps 769 mmHg 78%
    09:00 +21°C° 0 mm 4 mps 769 mmHg 70%
    10:00 +24°C° 0 mm 3 mps 769 mmHg 64%
    11:00 +24°C° 0.1 mm 3 mps 768 mmHg 60%
    12:00 +25°C° 0.1 mm 4 mps 768 mmHg 56%
    13:00 +26°C° 0.1 mm 4 mps 767 mmHg 53%
    14:00 +25°C° 0 mm 4 mps 767 mmHg 54%
    15:00 +25°C° 0 mm 4 mps 767 mmHg 56%
    16:00 +23°C° 0 mm 4 mps 767 mmHg 58%
    17:00 +22°C° 0 mm 4 mps 767 mmHg 64%
    18:00 +21°C° 0 mm 4 mps 768 mmHg 70%
    19:00 +20°C° 0 mm 3 mps 768 mmHg 76%
    20:00 +19°C° 0 mm 3 mps 768 mmHg 79%
    21:00 +19°C° 0 mm 3 mps 768 mmHg 82%
    22:00 +18°C° 0 mm 3 mps 768 mmHg 87%
    23:00 +18°C° 0.1 mm 2 mps 768 mmHg 88%

    Tomorrow, 20 May, Monday

    Time Temperature Precipitation Wind Pressure Humidity
    00:00 +18°C° 0.1 mm 2 mps 768 mmHg 89%
    01:00 +18°C° 0.1 mm 2 mps 768 mmHg 90%
    02:00 +18°C° 0.1 mm 2 mps 768 mmHg 91%
    03:00 +18°C° 0.1 mm 2 mps 768 mmHg 91%
    04:00 +18°C° 0.1 mm 2 mps 768 mmHg 92%
    05:00 +18°C° 0.2 mm 2 mps 768 mmHg 91%
    06:00 +18°C° 0.2 mm 2 mps 768 mmHg 91%
    07:00 +18°C° 0.2 mm 2 mps 768 mmHg 91%
    08:00 +19°C° 0.3 mm 2 mps 768 mmHg 88%
    09:00 +20°C° 0.3 mm 2 mps 768 mmHg 85%
    10:00 +21°C° 0.3 mm 2 mps 768 mmHg 83%
    11:00 +21°C° 0.5 mm 2 mps 768 mmHg 83%
    12:00 +21°C° 0.5 mm 2 mps 767 mmHg 82%
    13:00 +21°C° 0.5 mm 2 mps 767 mmHg 82%
    14:00 +21°C° 0.5 mm 2 mps 767 mmHg 83%
    15:00 +20°C° 0.5 mm 2 mps 766 mmHg 84%
    16:00 +20°C° 0.5 mm 2 mps 766 mmHg 86%
    17:00 +20°C° 0.5 mm 2 mps 767 mmHg 86%
    18:00 +20°C° 0.5 mm 2 mps 767 mmHg 86%
    19:00 +20°C° 0.5 mm 2 mps 767 mmHg 86%
    20:00 +19°C° 0.1 mm 2 mps 767 mmHg 86%
    21:00 +19°C° 0.1 mm 2 mps 768 mmHg 85%
    22:00 +19°C° 0.1 mm 2 mps 768 mmHg 85%
    23:00 +19°C° 0 mm 2 mps 768 mmHg 85%

    Day after tomorrow, 21 May, Tuesday

    Time Temperature Precipitation Wind Pressure Humidity
    00:00 +20°C° 0 mm 1 mps 768 mmHg 85%
    01:00 +19°C° 0 mm 1 mps 767 mmHg 85%
    02:00 +19°C° 0 mm 1 mps 767 mmHg 86%
    03:00 +18°C° 0 mm 2 mps 767 mmHg 87%
    04:00 +17°C° 0 mm 2 mps 767 mmHg 88%
    05:00 +17°C° 0 mm 2 mps 767 mmHg 88%
    06:00 +17°C° 0 mm 2 mps 767 mmHg 89%
    07:00 +17°C° 0 mm 2 mps 768 mmHg 89%
    08:00 +19°C° 0 mm 2 mps 768 mmHg 80%
    09:00 +21°C° 0 mm 2 mps 768 mmHg 71%
    10:00 +24°C° 0 mm 2 mps 768 mmHg 62%
    11:00 +25°C° 0 mm 2 mps 768 mmHg 58%
    12:00 +26°C° 0 mm 2 mps 767 mmHg 54%
    13:00 +26°C° 0 mm 3 mps 766 mmHg 50%
    14:00 +26°C° 0 mm 3 mps 766 mmHg 53%
    15:00 +25°C° 0 mm 3 mps 766 mmHg 56%
    16:00 +24°C° 0 mm 3 mps 766 mmHg 59%
    17:00 +23°C° 0 mm 2 mps 767 mmHg 64%
    18:00 +21°C° 0 mm 2 mps 767 mmHg 68%
    19:00 +20°C° 0 mm 2 mps 767 mmHg 73%
    20:00 +19°C° 0 mm 2 mps 768 mmHg 75%
    21:00 +20°C° 0 mm 1 mps 768 mmHg 77%
    22:00 +19°C° 0 mm 1 mps 769 mmHg 79%
    23:00 +19°C° 0 mm 1 mps 768 mmHg 81%

    22 May, Wednesday

    Time Temperature Precipitation Wind Pressure Humidity
    00:00 +18°C° 0 mm 1 mps 768 mmHg 83%
    01:00 +18°C° 0 mm 1 mps 768 mmHg 85%
    02:00 +18°C° 0 mm 1 mps 768 mmHg 87%
    03:00 +16°C° 0 mm 2 mps 768 mmHg 88%
    04:00 +16°C° 0 mm 2 mps 768 mmHg 90%
    05:00 +16°C° 0 mm 2 mps 768 mmHg 89%
    06:00 +16°C° 0 mm 2 mps 768 mmHg 89%
    07:00 +16°C° 0 mm 2 mps 769 mmHg 89%
    08:00 +18°C° 0 mm 2 mps 769 mmHg 79%
    09:00 +21°C° 0 mm 2 mps 769 mmHg 69%
    10:00 +24°C° 0 mm 2 mps 769 mmHg 59%
    11:00 +25°C° 0 mm 2 mps 768 mmHg 56%
    12:00 +26°C° 0 mm 2 mps 768 mmHg 52%
    13:00 +26°C° 0 mm 3 mps 767 mmHg 49%
    14:00 +26°C° 0 mm 3 mps 767 mmHg 52%
    15:00 +25°C° 0 mm 3 mps 767 mmHg 54%
    16:00 +24°C° 0 mm 3 mps 767 mmHg 57%
    17:00 +22°C° 0 mm 3 mps 767 mmHg 63%
    18:00 +21°C° 0 mm 3 mps 768 mmHg 69%
    19:00 +19°C° 0 mm 2 mps 768 mmHg 75%
    20:00 +19°C° 0 mm 2 mps 768 mmHg 78%
    21:00 +19°C° 0 mm 2 mps 769 mmHg 80%
    22:00 +18°C° 0 mm 2 mps 769 mmHg 83%
    23:00 +18°C° 0 mm 2 mps 768 mmHg 85%

    23 May, Thursday

    Time Temperature Precipitation Wind Pressure Humidity
    00:00 +17°C° 0 mm 2 mps 768 mmHg 86%
    01:00 +17°C° 0 mm 2 mps 768 mmHg 88%
    02:00 +17°C° 0 mm 2 mps 768 mmHg 88%
    03:00 +17°C° 0 mm 2 mps 768 mmHg 88%
    04:00 +17°C° 0 mm 2 mps 767 mmHg 89%
    05:00 +17°C° 0 mm 2 mps 768 mmHg 89%
    06:00 +17°C° 0 mm 2 mps 768 mmHg 88%
    07:00 +17°C° 0 mm 2 mps 769 mmHg 88%
    08:00 +19°C° 0 mm 3 mps 769 mmHg 80%
    09:00 +21°C° 0 mm 3 mps 769 mmHg 72%
    10:00 +24°C° 0 mm 3 mps 769 mmHg 63%
    11:00 +24°C° 0 mm 3 mps 768 mmHg 59%
    12:00 +25°C° 0 mm 3 mps 767 mmHg 55%
    13:00 +26°C° 0 mm 4 mps 767 mmHg 51%
    14:00 +25°C° 0 mm 4 mps 766 mmHg 54%
    15:00 +25°C° 0 mm 4 mps 766 mmHg 56%
    16:00 +23°C° 0 mm 4 mps 766 mmHg 58%
    17:00 +22°C° 0 mm 3 mps 767 mmHg 64%
    18:00 +21°C° 0 mm 3 mps 767 mmHg 70%
    19:00 +19°C° 0 mm 3 mps 767 mmHg 77%
    20:00 +19°C° 0 mm 3 mps 768 mmHg 79%
    21:00 +18°C° 0 mm 3 mps 768 mmHg 82%
    22:00 +18°C° 0 mm 2 mps 768 mmHg 85%
    23:00 +17°C° 0 mm 2 mps 768 mmHg 86%

    24 May, Friday

    Time Temperature Precipitation Wind Pressure Humidity
    00:00 +17°C° 0 mm 2 mps 767 mmHg 87%
    01:00 +17°C° 0 mm 2 mps 767 mmHg 88%
    02:00 +16°C° 0 mm 2 mps 767 mmHg 89%
    03:00 +16°C° 0 mm 2 mps 766 mmHg 90%
    04:00 +16°C° 0 mm 3 mps 766 mmHg 91%
    05:00 +16°C° 0 mm 3 mps 767 mmHg 91%
    06:00 +16°C° 0 mm 3 mps 767 mmHg 91%
    07:00 +16°C° 0 mm 3 mps 767 mmHg 91%
    08:00 +18°C° 0 mm 3 mps 767 mmHg 82%
    09:00 +20°C° 0 mm 3 mps 767 mmHg 74%
    10:00 +22°C° 0 mm 3 mps 767 mmHg 66%
    11:00 +24°C° 0.4 mm 3 mps 766 mmHg 66%
    12:00 +24°C° 0.4 mm 3 mps 766 mmHg 66%
    13:00 +24°C° 0.4 mm 3 mps 765 mmHg 67%
    14:00 +24°C° 0.3 mm 3 mps 765 mmHg 68%
    15:00 +22°C° 0.3 mm 3 mps 765 mmHg 69%
    16:00 +22°C° 0.3 mm 3 mps 765 mmHg 70%
    17:00 +21°C° 0 mm 3 mps 765 mmHg 74%
    18:00 +20°C° 0 mm 3 mps 766 mmHg 77%
    19:00 +19°C° 0 mm 3 mps 766 mmHg 80%
    20:00 +18°C° 0 mm 3 mps 766 mmHg 81%
    21:00 +18°C° 0 mm 2 mps 766 mmHg 83%
    22:00 +17°C° 0 mm 2 mps 766 mmHg 84%
    23:00 +17°C° 0 mm 2 mps 766 mmHg 85%
    Show more